Location: Stoke Bliss
(52.2667°N, 2.5167°W)
Time: 21:45:19
(UTC+00:00)

Cosmos 2278 - Pass Details

Date: 03 March 2021
Orbit: 838 x 854 km, 71.1° (Epoch: 15 April)

Event Time Altitude Azimuth Distance (km) Brightness Sun altitude
Rises 18:32:01 0° 222° (SW) 3,395 7.6 -6.7°
Reaches altitude 10° 18:34:30 10° 225° (SW) 2,466 6.9 -7.1°
Maximum altitude 18:40:06 61° 306° (NW) 967 4.3 -7.9°
Drops below altitude 10° 18:45:46 10° 27° (NNE) 2,491 5.9 -8.8°
Sets 18:48:17 0° 31° (NNE) 3,432 6.6 -9.2°
